Regional Weather Roundup
Issued by NWS

Home | Current Version | Previous Version | Text Only | Print | Product List | Glossary Off
Versions: 1 2 3 4 5 6 7 8 9 10 11 12 13 14 15 16 17 18 19 20 21 22 23 24 25 26 27 28 29 30 31 32 33 34 35 36 37 38 39 40 41 42 43 44 45 46 47 48 49 50

254
ASUS44 KLIX 010005
RWRLA
LOUISIANA WEATHER ROUNDUP
NATIONAL WEATHER SERVICE NEW ORLEANS LA
700 PM CDT FRI OCT 31 2014

NOTE: "FAIR" INDICATES FEW OR NO CLOUDS BELOW 12,000 FEET WITH NO
      SIGNIFICANT WEATHER AND/OR OBSTRUCTIONS TO VISIBILITY.
      SKY/WX - SKY CONDITION AND SIGNIFICANT WEATHER.
      TMP - AIR TEMPERATURE.    DP   - DEWPOINT TEMPERATURE.
      RH  - RELATIVE HUMIDITY.  PRES - PRESSURE.
      HX  - HEAT INDEX.         WCI  - WIND CHILL INDEX.

*  THESE STATIONS ARE NOT NWS OR FAA STATIONS AND ARE NOT UNDER
   NWS QUALITY CONTROL.

LAZ040-048-061>063-065-066-069-010100-
SOUTHEAST LOUISIANA

CITY           SKY/WX    TMP DP  RH WIND       PRES   REMARKS
N.O. AUDUBON     N/A     70 N/A N/A MISG        N/A
6HR MIN TEMP:  69; 6HR MAX TEMP:  77;

N.O. INTL ARPT PTCLDY    69  46  43 N17G26    30.08R
6HR MIN TEMP:  69; 6HR MAX TEMP:  76;

N.O. LAKEFRONT CLEAR     70  51  51 N29       30.07R
6HR MIN TEMP:  70; 6HR MAX TEMP:  75;

N.O. DOWNTOWN* FAIR      70  45  40 N12G22    30.08R
6HR MIN TEMP:  70; 6HR MAX TEMP:  75;

SLIDELL        CLEAR     66  45  46 NW6       30.07R
6HR MIN TEMP:  66; 6HR MAX TEMP:  76;

BATON ROUGE    CLEAR     65  45  48 VRB7      30.13R
6HR MIN TEMP:  65; 6HR MAX TEMP:  75;

BOOTHVILLE     CLEAR     70  49  47 NW18G29   30.04R
6HR MIN TEMP:  70; 6HR MAX TEMP:  75;

BELLE CHASSE   PTCLDY    69  44  40 N8        30.06R
6HR MIN TEMP:  69; 6HR MAX TEMP:  76;

BOGALUSA*        N/A     65  45  47 N12       30.10R
6HR MIN TEMP:  65; 6HR MAX TEMP:  76;

NEW ROADS*     FAIR      63  48  58 N9        30.15R
6HR MIN TEMP:  63; 6HR MAX TEMP:  73;

GONZALES*      FAIR      65  48  52 N8        30.11R
6HR MIN TEMP:  65; 6HR MAX TEMP:  75;

HAMMOND*       CLEAR     64  45  48 NW8       30.12R
HOUMA*         CLEAR     64  46  52 NW12      30.08R
PORT FOURCHON* NOT AVBL

$$

LAZ041-044-053-054-010100-
SOUTHWEST LOUISIANA

CITY           SKY/WX    TMP DP  RH WIND       PRES   REMARKS
LAKE CHARLES   CLEAR     66  46  48 N9G20     30.16R
6HR MIN TEMP:  66; 6HR MAX TEMP:  76;

LAFAYETTE      CLEAR     67  47  48 N14       30.14R
6HR MIN TEMP:  67; 6HR MAX TEMP:  77;

PATTERSON      CLEAR     64  48  55 N9        30.13R
6HR MIN TEMP:  64; 6HR MAX TEMP:  75;

SALT POINT       N/A     67  48  50 N7        30.10R
6HR MIN TEMP:  67; 6HR MAX TEMP:  77;

NEW IBERIA     CLEAR     66  48  52 N12       30.13R
6HR MIN TEMP:  66; 6HR MAX TEMP:  76;

CHENAULT AIRPK NOT AVBL

$$

LAZ027-028-010100-
CENTRAL LOUISIANA

CITY           SKY/WX    TMP DP  RH WIND       PRES   REMARKS
FORT POLK      CLEAR     62  47  57 N8        30.19R
6HR MIN TEMP:  62; 6HR MAX TEMP:  72;

ALEXANDRIA INT CLEAR     62  47  57 N8        30.18R
6HR MIN TEMP:  62; 6HR MAX TEMP:  73;

ALEXANDRIA     CLEAR     61  48  62 VRB3      30.19R
6HR MIN TEMP:  61; 6HR MAX TEMP:  72;


$$

LAZ001-002-010100-
NORTHWEST LOUISIANA

CITY           SKY/WX    TMP DP  RH WIND       PRES   REMARKS
SHREVEPORT     PTCLDY    62  43  49 N9        30.23R
6HR MIN TEMP:  62; 6HR MAX TEMP:  70;

BARKSDALE AFB  CLEAR     60  42  51 N8        30.24R
6HR MIN TEMP:  60; 6HR MAX TEMP:  70;

DTN SHREVEPORT CLEAR     61  42  49 N8        30.24R
6HR MIN TEMP:  61; 6HR MAX TEMP:  69;


$$

LAZ014-016-010100-
NORTHEAST LOUISIANA

CITY           SKY/WX    TMP DP  RH WIND       PRES   REMARKS
MONROE         PTCLDY    59  45  59 N7        30.22R
6HR MIN TEMP:  59; 6HR MAX TEMP:  70;

TALLULAH       PTCLDY    59  42  53 N9        30.19R
6HR MIN TEMP:  59; 6HR MAX TEMP:  69;


$$




USA.gov is the U.S. government's official web portal to all federal, state and local government web resources and services.